QTR829 VTBS-OTHH

Flight info

Callsign QTR829
Flight time 6h 31m
Altitude 34000
Route PASTO1E PASTO L301 BUSBO L505 OPAKA/N0498F360 L505 EXOLU M638 KARKU L301 RASKI N881 KIPOL L444 TOLDA M628 TULBU G652 TOKRA/N0513F280 Y511 LABDU DCT RAGPO/N0520F290 Y432 LADBO DCT ULBID DCT LAEEB
Aircraft B77W/H-SDE1E2E3FGHIJ2J3J4J5M1RWXY/LB1D1

Departure

Time 2026-05-06 22:25
Airport Suvarnabhumi Airport (VTBS)

Arrival

Time 2026-05-07 04:57
Airport Hamad International Airport (OTHH)
Time Latitude Longitude Altitude Speed Heading
2026-05-06 21:45 13.68204 100.74527 18 ft 0 kts 14°
2026-05-06 22:05 13.68192 100.74524 20 ft 3 kts 10°
2026-05-06 22:05 13.68172 100.74522 18 ft 3 kts
2026-05-06 22:05 13.68152 100.74522 19 ft 3 kts 351°
2026-05-06 22:05 13.68132 100.74527 18 ft 3 kts 338°
2026-05-06 22:06 13.68115 100.74536 19 ft 3 kts 318°
2026-05-06 22:06 13.68103 100.74550 18 ft 2 kts 289°
2026-05-06 22:06 13.68101 100.74555 18 ft 0 kts 284°
2026-05-06 22:09 13.68103 100.74547 18 ft 4 kts 284°
2026-05-06 22:10 13.68110 100.74518 18 ft 7 kts 284°
2026-05-06 22:10 13.68133 100.74429 18 ft 12 kts 284°
2026-05-06 22:10 13.68153 100.74348 18 ft 12 kts 284°
2026-05-06 22:10 13.68174 100.74266 18 ft 12 kts 284°
2026-05-06 22:11 13.68194 100.74185 18 ft 12 kts 284°
2026-05-06 22:11 13.68214 100.74106 18 ft 9 kts 284°
2026-05-06 22:11 13.68252 100.74064 18 ft 9 kts 348°
2026-05-06 22:11 13.68338 100.74081 18 ft 14 kts 16°
2026-05-06 22:12 13.68433 100.74106 18 ft 14 kts 13°
2026-05-06 22:12 13.68529 100.74130 18 ft 14 kts 13°
2026-05-06 22:12 13.68624 100.74154 18 ft 14 kts 13°
2026-05-06 22:12 13.68719 100.74178 18 ft 14 kts 14°
2026-05-06 22:13 13.68815 100.74202 18 ft 14 kts 14°
2026-05-06 22:13 13.68910 100.74226 18 ft 14 kts 15°
2026-05-06 22:13 13.69034 100.74259 18 ft 23 kts 14°
2026-05-06 22:13 13.69192 100.74301 18 ft 23 kts 14°
2026-05-06 22:14 13.69348 100.74344 18 ft 23 kts 15°
2026-05-06 22:14 13.69504 100.74385 18 ft 23 kts 13°
2026-05-06 22:14 13.69661 100.74425 18 ft 23 kts 14°
2026-05-06 22:14 13.69819 100.74465 18 ft 23 kts 14°
2026-05-06 22:15 13.69976 100.74505 18 ft 23 kts 14°
2026-05-06 22:15 13.70132 100.74550 18 ft 23 kts 15°
2026-05-06 22:15 13.70274 100.74572 18 ft 20 kts 342°
2026-05-06 22:15 13.70322 100.74499 18 ft 0 kts 285°
2026-05-06 22:16 13.70330 100.74470 18 ft 13 kts 285°
2026-05-06 22:16 13.70344 100.74362 19 ft 15 kts 270°
2026-05-06 22:17 13.70301 100.74304 19 ft 11 kts 195°
2026-05-06 22:17 13.70098 100.74248 19 ft 64 kts 195°
2026-05-06 22:17 13.69463 100.74081 15 ft 127 kts 194°
2026-05-06 22:17 13.68673 100.73873 20 ft 75 kts 194°
2026-05-06 22:18 13.68412 100.73831 18 ft 30 kts 175°
2026-05-06 22:18 13.68227 100.73887 18 ft 24 kts 131°
2026-05-06 22:18 13.68266 100.73957 18 ft 19 kts 15°
2026-05-06 22:18 13.68430 100.74000 18 ft 25 kts 15°
2026-05-06 22:19 13.68600 100.74045 19 ft 25 kts 14°
2026-05-06 22:19 13.68766 100.74089 19 ft 25 kts 14°
2026-05-06 22:19 13.68934 100.74134 18 ft 25 kts 14°
2026-05-06 22:19 13.69102 100.74180 18 ft 25 kts 15°
2026-05-06 22:20 13.69271 100.74224 18 ft 25 kts 14°
2026-05-06 22:20 13.69439 100.74268 17 ft 25 kts 14°
2026-05-06 22:20 13.69607 100.74312 18 ft 25 kts 14°
2026-05-06 22:20 13.69776 100.74356 17 ft 25 kts 14°
2026-05-06 22:21 13.69944 100.74400 18 ft 25 kts 14°
2026-05-06 22:21 13.70110 100.74442 18 ft 16 kts 14°
2026-05-06 22:21 13.70115 100.74443 18 ft 0 kts 14°
2026-05-06 22:23 13.70119 100.74444 18 ft 3 kts 14°
2026-05-06 22:23 13.70175 100.74458 18 ft 13 kts 11°
2026-05-06 22:23 13.70224 100.74425 18 ft 11 kts 291°
2026-05-06 22:24 13.70251 100.74332 19 ft 8 kts 286°
2026-05-06 22:24 13.70238 100.74288 20 ft 4 kts 207°
2026-05-06 22:24 13.70200 100.74276 20 ft 13 kts 197°
2026-05-06 22:24 13.69883 100.74192 17 ft 84 kts 194°
2026-05-06 22:25 13.69407 100.74067 16 ft 128 kts 194°
2026-05-06 22:25 13.68349 100.73788 20 ft 183 kts 194°
2026-05-06 22:25 13.67040 100.73427 371 ft 195 kts 194°
2026-05-06 22:25 13.65709 100.73061 924 ft 200 kts 194°
2026-05-06 22:26 13.64394 100.72706 1674 ft 192 kts 194°
2026-05-06 22:26 13.63046 100.72364 1980 ft 209 kts 193°
2026-05-06 22:26 13.61557 100.71986 2173 ft 232 kts 193°
2026-05-06 22:26 13.59916 100.71559 2400 ft 252 kts 193°
2026-05-06 22:27 13.58182 100.71107 2910 ft 262 kts 193°
2026-05-06 22:27 13.56396 100.70638 3516 ft 267 kts 193°
2026-05-06 22:27 13.54693 100.69883 4064 ft 273 kts 218°
2026-05-06 22:27 13.53544 100.68323 4680 ft 279 kts 249°
2026-05-06 22:28 13.53297 100.66350 5312 ft 282 kts 275°
2026-05-06 22:28 13.53687 100.64370 5953 ft 284 kts 284°
2026-05-06 22:28 13.54188 100.62393 6565 ft 288 kts 285°
2026-05-06 22:28 13.54703 100.60400 7165 ft 289 kts 288°
2026-05-06 22:29 13.55674 100.58601 7608 ft 293 kts 317°
2026-05-06 22:29 13.57375 100.57498 8166 ft 291 kts 344°
2026-05-06 22:29 13.59360 100.57209 8756 ft 288 kts
2026-05-06 22:29 13.61387 100.57275 9239 ft 295 kts
2026-05-06 22:30 13.63444 100.57347 9861 ft 297 kts
2026-05-06 22:30 13.65516 100.57412 10386 ft 302 kts
2026-05-06 22:30 13.67688 100.57481 10559 ft 323 kts
2026-05-06 22:30 13.70002 100.57549 10720 ft 344 kts
2026-05-06 22:31 13.72466 100.57616 10871 ft 364 kts
2026-05-06 22:31 13.75059 100.57685 11181 ft 379 kts
2026-05-06 22:31 13.77674 100.57556 11511 ft 388 kts 348°
2026-05-06 22:31 13.80193 100.56419 12089 ft 393 kts 328°
2026-05-06 22:32 13.82466 100.54893 12682 ft 398 kts 328°
2026-05-06 22:32 13.84824 100.53377 13411 ft 401 kts 329°
2026-05-06 22:32 13.87210 100.51876 14113 ft 403 kts 329°
2026-05-06 22:32 13.89617 100.50365 14727 ft 407 kts 330°
2026-05-06 22:33 13.91995 100.48779 15209 ft 409 kts 322°
2026-05-06 22:33 13.93852 100.46522 15598 ft 421 kts 299°
2026-05-06 22:33 13.94862 100.43689 16162 ft 425 kts 281°
2026-05-06 22:33 13.95287 100.40668 16695 ft 428 kts 278°
2026-05-06 22:34 13.95671 100.37610 17201 ft 434 kts 278°
2026-05-06 22:34 13.96069 100.34518 17778 ft 438 kts 278°
2026-05-06 22:34 13.96490 100.31400 18327 ft 441 kts 278°
2026-05-06 22:34 13.96927 100.28265 18824 ft 444 kts 278°
2026-05-06 22:35 13.97374 100.25106 19333 ft 447 kts 278°
2026-05-06 22:35 13.97740 100.21916 19822 ft 450 kts 274°
2026-05-06 22:35 13.97866 100.18684 20311 ft 454 kts 271°
2026-05-06 22:35 13.97902 100.15429 20780 ft 457 kts 271°
2026-05-06 22:36 13.97956 100.12146 21252 ft 460 kts 271°
2026-05-06 22:36 13.98056 100.08844 21718 ft 463 kts 272°
2026-05-06 22:36 13.98180 100.05513 22166 ft 466 kts 272°
2026-05-06 22:36 13.98305 100.02172 22621 ft 470 kts 272°
2026-05-06 22:37 13.98428 99.98798 23062 ft 473 kts 272°
2026-05-06 22:37 13.98549 99.95406 23480 ft 476 kts 272°
2026-05-06 22:37 13.98669 99.91994 23830 ft 478 kts 272°
2026-05-06 22:37 13.98789 99.88564 24202 ft 480 kts 272°
2026-05-06 22:38 13.98909 99.85119 24593 ft 482 kts 272°
2026-05-06 22:38 13.99028 99.81666 24946 ft 484 kts 272°
2026-05-06 22:38 13.99148 99.78192 25284 ft 487 kts 272°
2026-05-06 22:38 13.99268 99.74704 25621 ft 489 kts 272°
2026-05-06 22:39 13.99390 99.71190 25956 ft 492 kts 272°
2026-05-06 22:39 13.99510 99.67665 26299 ft 494 kts 272°
2026-05-06 22:39 13.99631 99.64130 26634 ft 496 kts 272°
2026-05-06 22:39 13.99750 99.60617 26960 ft 498 kts 272°
2026-05-06 22:40 13.99870 99.57049 27278 ft 500 kts 272°
2026-05-06 22:40 13.99991 99.53463 27590 ft 502 kts 272°
2026-05-06 22:40 14.00116 99.49862 27901 ft 504 kts 273°
2026-05-06 22:40 14.00353 99.46256 28182 ft 506 kts 276°
2026-05-06 22:41 14.01098 99.39016 28645 ft 511 kts 277°
2026-05-06 22:41 14.01498 99.35369 28922 ft 513 kts 277°
2026-05-06 22:41 14.01883 99.31712 29195 ft 514 kts 277°
2026-05-06 22:42 14.02253 99.28045 29441 ft 516 kts 277°
2026-05-06 22:42 14.02614 99.24362 29677 ft 518 kts 277°
2026-05-06 22:42 14.02966 99.20665 29907 ft 519 kts 277°
2026-05-06 22:42 14.03315 99.16968 30199 ft 518 kts 277°
2026-05-06 22:43 14.03664 99.13287 30539 ft 515 kts 277°
2026-05-06 22:43 14.04013 99.09624 30906 ft 513 kts 277°
2026-05-06 22:43 14.04363 99.05973 31273 ft 511 kts 276°
2026-05-06 22:43 14.04710 99.02343 31596 ft 509 kts 276°
2026-05-06 22:44 14.05056 98.98718 31943 ft 507 kts 276°
2026-05-06 22:44 14.05383 98.95108 32267 ft 506 kts 275°
2026-05-06 22:44 14.05645 98.91490 32561 ft 505 kts 275°
2026-05-06 22:44 14.05869 98.87882 32835 ft 505 kts 274°
2026-05-06 22:45 14.06081 98.84273 33130 ft 504 kts 274°
2026-05-06 22:45 14.06295 98.80673 33427 ft 503 kts 274°
2026-05-06 22:45 14.06516 98.77084 33737 ft 502 kts 275°
2026-05-06 22:45 14.06742 98.73497 33972 ft 502 kts 275°
2026-05-06 22:46 14.06970 98.69901 34020 ft 504 kts 275°
2026-05-06 22:46 14.07453 98.62691 34040 ft 503 kts 277°
2026-05-06 22:47 14.07901 98.55531 34058 ft 500 kts 275°
2026-05-06 22:47 14.08350 98.48382 34044 ft 499 kts 275°
2026-05-06 22:48 14.08807 98.41245 34050 ft 500 kts 275°
2026-05-06 22:48 14.09257 98.34144 34040 ft 500 kts 275°
2026-05-06 22:49 14.09697 98.26945 34067 ft 499 kts 274°
2026-05-06 22:49 14.10342 98.19828 34027 ft 499 kts 280°
2026-05-06 22:50 14.11962 98.12942 34040 ft 498 kts 286°
2026-05-06 22:50 14.13749 98.06050 34022 ft 498 kts 285°
2026-05-06 22:51 14.15514 97.99135 34023 ft 498 kts 285°
2026-05-06 22:51 14.17243 97.92236 34017 ft 496 kts 285°
2026-05-06 22:52 14.18962 97.85346 34017 ft 496 kts 285°
2026-05-06 22:52 14.20671 97.78460 34014 ft 496 kts 285°
2026-05-06 22:53 14.22386 97.71576 34009 ft 496 kts 285°
2026-05-06 22:53 14.24099 97.64697 34011 ft 495 kts 285°
2026-05-06 22:54 14.25812 97.57817 34007 ft 495 kts 284°
2026-05-06 22:54 14.27519 97.50944 34013 ft 495 kts 284°
2026-05-06 22:55 14.29219 97.44081 34019 ft 494 kts 284°
2026-05-06 22:55 14.30917 97.37216 34016 ft 494 kts 284°
2026-05-06 22:56 14.32615 97.30349 34018 ft 494 kts 284°
2026-05-06 22:56 14.34311 97.23486 34007 ft 494 kts 284°
2026-05-06 22:57 14.36004 97.16620 34009 ft 494 kts 284°
2026-05-06 22:57 14.37697 97.09743 34016 ft 495 kts 284°
2026-05-06 22:58 14.39386 97.02872 34007 ft 494 kts 284°
2026-05-06 22:58 14.41076 96.95991 34010 ft 495 kts 284°
2026-05-06 22:59 14.42762 96.89115 34001 ft 495 kts 284°
2026-05-06 22:59 14.44447 96.82231 34002 ft 495 kts 284°
2026-05-06 23:00 14.46134 96.75338 34009 ft 496 kts 285°
2026-05-06 23:00 14.47823 96.68429 34012 ft 497 kts 284°
2026-05-06 23:01 14.49512 96.61502 34025 ft 499 kts 285°
2026-05-06 23:01 14.51213 96.54517 34024 ft 504 kts 285°
2026-05-06 23:02 14.52916 96.47522 34023 ft 508 kts 285°
2026-05-06 23:02 14.54641 96.40424 34019 ft 512 kts 285°
2026-05-06 23:03 14.56374 96.33282 34016 ft 514 kts 284°
2026-05-06 23:03 14.58111 96.26106 34014 ft 516 kts 284°
2026-05-06 23:04 14.59849 96.18924 34010 ft 516 kts 284°
2026-05-06 23:04 14.61586 96.11734 34011 ft 516 kts 284°
2026-05-06 23:05 14.63318 96.04556 33997 ft 515 kts 284°
2026-05-06 23:05 14.65046 95.97383 34008 ft 514 kts 284°
2026-05-06 23:06 14.66768 95.90221 34016 ft 514 kts 284°
2026-05-06 23:06 14.68491 95.83052 34015 ft 514 kts 284°
2026-05-06 23:07 14.70209 95.75887 34016 ft 515 kts 284°
2026-05-06 23:07 14.71928 95.68707 34016 ft 515 kts 284°
2026-05-06 23:08 14.73645 95.61530 34008 ft 515 kts 284°
2026-05-06 23:08 14.75351 95.54391 34009 ft 515 kts 284°
2026-05-06 23:09 14.77065 95.47205 34012 ft 515 kts 284°
2026-05-06 23:09 14.78778 95.40013 34017 ft 516 kts 284°
2026-05-06 23:10 14.80493 95.32799 34011 ft 517 kts 284°
2026-05-06 23:10 14.82207 95.25577 34006 ft 518 kts 284°
2026-05-06 23:11 14.83920 95.18351 34007 ft 518 kts 284°
2026-05-06 23:11 14.85341 95.12350 34003 ft 518 kts 283°
2026-05-06 23:12 14.87051 95.05116 34003 ft 517 kts 283°
2026-05-06 23:12 14.88753 94.97902 34016 ft 516 kts 283°
2026-05-06 23:13 14.90449 94.90713 34011 ft 513 kts 283°
2026-05-06 23:13 14.92133 94.83567 34005 ft 510 kts 283°
2026-05-06 23:14 14.93801 94.76465 34005 ft 507 kts 283°
2026-05-06 23:14 14.95460 94.69394 34007 ft 506 kts 283°
2026-05-06 23:15 14.97117 94.62327 34016 ft 506 kts 283°
2026-05-06 23:15 14.98762 94.55298 34020 ft 506 kts 283°
2026-05-06 23:16 15.00415 94.48224 34011 ft 506 kts 283°
2026-05-06 23:16 15.02065 94.41150 34008 ft 506 kts 283°
2026-05-06 23:17 15.03713 94.34079 34006 ft 505 kts 283°
2026-05-06 23:17 15.05355 94.27017 34011 ft 505 kts 283°
2026-05-06 23:18 15.06997 94.19952 34007 ft 505 kts 283°
2026-05-06 23:18 15.08634 94.12896 34005 ft 504 kts 282°
2026-05-06 23:19 15.10268 94.05838 34004 ft 504 kts 282°
2026-05-06 23:19 15.11901 93.98780 34004 ft 504 kts 282°
2026-05-06 23:20 15.13517 93.91783 34010 ft 504 kts 282°
2026-05-06 23:20 15.15148 93.84706 34000 ft 504 kts 282°
2026-05-06 23:21 15.16772 93.77653 34003 ft 504 kts 282°
2026-05-06 23:21 15.18393 93.70600 34004 ft 504 kts 282°
2026-05-06 23:22 15.20013 93.63543 34002 ft 504 kts 282°
2026-05-06 23:22 15.21632 93.56481 34004 ft 504 kts 282°
2026-05-06 23:23 15.23247 93.49420 34010 ft 504 kts 282°
2026-05-06 23:23 15.24848 93.42413 34009 ft 504 kts 282°
2026-05-06 23:24 15.26460 93.35350 34005 ft 504 kts 282°
2026-05-06 23:24 15.28080 93.28239 34003 ft 504 kts 282°
2026-05-06 23:25 15.29688 93.21171 34008 ft 504 kts 282°
2026-05-06 23:25 15.31292 93.14102 34001 ft 504 kts 282°
2026-05-06 23:26 15.32894 93.07033 34012 ft 504 kts 282°
2026-05-06 23:26 15.34496 92.99964 34005 ft 504 kts 282°
2026-05-06 23:27 15.36095 92.92890 33999 ft 504 kts 282°
2026-05-06 23:27 15.37681 92.85860 34005 ft 504 kts 282°
2026-05-06 23:28 15.39286 92.78737 34009 ft 504 kts 282°
2026-05-06 23:28 15.40869 92.71703 34008 ft 504 kts 282°
2026-05-06 23:29 15.42459 92.64623 33995 ft 505 kts 282°
2026-05-06 23:29 15.44119 92.57552 34009 ft 505 kts 283°
2026-05-06 23:30 15.45888 92.50496 34007 ft 506 kts 283°
2026-05-06 23:30 15.47656 92.43421 34007 ft 507 kts 283°
2026-05-06 23:31 15.49402 92.36346 34006 ft 507 kts 283°
2026-05-06 23:31 15.51139 92.29267 34010 ft 507 kts 283°
2026-05-06 23:32 15.52876 92.22182 34009 ft 507 kts 282°
2026-05-06 23:32 15.54612 92.15093 34005 ft 508 kts 282°
2026-05-06 23:33 15.56349 92.07991 34008 ft 508 kts 282°
2026-05-06 23:33 15.58083 92.00891 34008 ft 508 kts 282°
2026-05-06 23:34 15.59809 91.93780 34002 ft 508 kts 282°
2026-05-06 23:34 15.61522 91.86665 33998 ft 508 kts 282°
2026-05-06 23:35 15.63233 91.79549 34012 ft 508 kts 282°
2026-05-06 23:35 15.64940 91.72443 34005 ft 507 kts 282°
2026-05-06 23:36 15.66642 91.65352 34001 ft 506 kts 282°
2026-05-06 23:36 15.68328 91.58318 34000 ft 505 kts 282°
2026-05-06 23:37 15.70018 91.51255 34011 ft 504 kts 282°
2026-05-06 23:37 15.71715 91.44152 34002 ft 503 kts 282°
2026-05-06 23:38 15.73397 91.37101 33999 ft 503 kts 282°
2026-05-06 23:38 15.75065 91.30100 33998 ft 503 kts 282°
2026-05-06 23:39 15.76752 91.23005 34014 ft 503 kts 282°
2026-05-06 23:39 15.78426 91.15954 34012 ft 503 kts 282°
2026-05-06 23:40 15.80089 91.08942 34003 ft 503 kts 282°
2026-05-06 23:40 15.81773 91.01829 34019 ft 504 kts 282°
2026-05-06 23:41 15.83434 90.94801 34014 ft 504 kts 282°
2026-05-06 23:41 15.85105 90.87722 34003 ft 504 kts 282°
2026-05-06 23:42 15.86773 90.80642 34003 ft 504 kts 282°
2026-05-06 23:42 15.88441 90.73558 34001 ft 505 kts 281°
2026-05-06 23:43 15.90097 90.66508 34019 ft 505 kts 281°
2026-05-06 23:43 15.91762 90.59406 34015 ft 506 kts 281°
2026-05-06 23:44 15.93427 90.52296 34006 ft 506 kts 281°
2026-05-06 23:44 15.95090 90.45185 34006 ft 506 kts 281°
2026-05-06 23:45 15.96752 90.38066 34014 ft 506 kts 281°
2026-05-06 23:45 15.98409 90.30956 34007 ft 506 kts 281°
2026-05-06 23:46 16.00060 90.23862 34027 ft 504 kts 281°
2026-05-06 23:46 16.01704 90.16788 34004 ft 502 kts 281°
2026-05-06 23:47 16.03366 90.09804 34003 ft 500 kts 282°
2026-05-06 23:47 16.05062 90.02803 34006 ft 498 kts 282°
2026-05-06 23:48 16.06748 89.95818 34016 ft 497 kts 281°
2026-05-06 23:48 16.08427 89.88815 33932 ft 501 kts 281°
2026-05-06 23:49 16.10101 89.81817 33840 ft 500 kts 281°
2026-05-06 23:49 16.11780 89.74795 33826 ft 498 kts 281°
2026-05-06 23:50 16.13448 89.67800 33829 ft 498 kts 281°
2026-05-06 23:50 16.15948 89.57308 33834 ft 498 kts 281°
2026-05-06 23:51 16.17601 89.50352 33835 ft 498 kts 281°
2026-05-06 23:51 16.19267 89.43332 33830 ft 499 kts 281°
2026-05-06 23:52 16.20929 89.36317 33835 ft 500 kts 281°
2026-05-06 23:52 16.22593 89.29284 33834 ft 501 kts 281°
2026-05-06 23:53 16.23425 89.25760 33709 ft 497 kts 281°
2026-05-06 23:53 16.24240 89.22318 33795 ft 486 kts 281°
2026-05-06 23:53 16.25857 89.15458 33830 ft 491 kts 281°
2026-05-06 23:54 16.27480 89.08562 33844 ft 496 kts 281°
2026-05-06 23:54 16.29171 89.01560 33839 ft 500 kts 282°
2026-05-06 23:55 16.30897 88.94525 33837 ft 503 kts 282°
2026-05-06 23:55 16.32626 88.87453 33831 ft 504 kts 282°
2026-05-06 23:56 16.34056 88.81576 33838 ft 504 kts 281°
2026-05-06 23:56 16.35768 88.74516 33842 ft 501 kts 281°
2026-05-06 23:57 16.37744 88.66357 33830 ft 498 kts 281°
2026-05-06 23:57 16.39148 88.60556 33834 ft 496 kts 281°
2026-05-06 23:58 16.40825 88.53604 33838 ft 494 kts 281°
2026-05-06 23:58 16.42497 88.46661 33840 ft 494 kts 281°
2026-05-06 23:59 16.44171 88.39712 33838 ft 494 kts 281°
2026-05-06 23:59 16.45841 88.32761 33839 ft 495 kts 281°
2026-05-07 00:00 16.47512 88.25797 33841 ft 495 kts 281°
2026-05-07 00:00 16.49173 88.18864 33842 ft 496 kts 281°
2026-05-07 00:01 16.50842 88.11888 33841 ft 496 kts 281°
2026-05-07 00:01 16.52511 88.04897 33841 ft 497 kts 281°
2026-05-07 00:02 16.54168 87.97948 33841 ft 497 kts 281°
2026-05-07 00:02 16.55832 87.90960 33841 ft 497 kts 281°
2026-05-07 00:03 16.57496 87.83962 33841 ft 497 kts 281°
2026-05-07 00:03 16.59156 87.76970 33841 ft 497 kts 281°
2026-05-07 00:04 16.60813 87.69975 33841 ft 497 kts 281°
2026-05-07 00:04 16.62459 87.63018 33841 ft 497 kts 281°
2026-05-07 00:05 16.64111 87.56023 33840 ft 497 kts 281°
2026-05-07 00:05 16.65765 87.49009 33841 ft 497 kts 281°
2026-05-07 00:06 16.67415 87.42002 33842 ft 498 kts 281°
2026-05-07 00:06 16.69063 87.34990 33851 ft 497 kts 281°
2026-05-07 00:07 16.70704 87.27999 33837 ft 495 kts 281°
2026-05-07 00:07 16.72337 87.21030 33839 ft 493 kts 281°
2026-05-07 00:08 16.73964 87.14082 33840 ft 492 kts 281°
2026-05-07 00:08 16.75598 87.07197 33841 ft 492 kts 281°
2026-05-07 00:09 16.77252 87.00271 33842 ft 492 kts 281°
2026-05-07 00:09 16.78902 86.93342 33846 ft 492 kts 281°
2026-05-07 00:10 16.80548 86.86408 33845 ft 492 kts 281°
2026-05-07 00:10 16.82191 86.79467 33844 ft 492 kts 281°
2026-05-07 00:11 16.83820 86.72573 33844 ft 492 kts 281°
2026-05-07 00:11 16.85459 86.65627 33844 ft 492 kts 281°
2026-05-07 00:12 16.87094 86.58689 33842 ft 492 kts 281°
2026-05-07 00:12 16.88726 86.51747 33844 ft 492 kts 281°
2026-05-07 00:13 16.90356 86.44807 33843 ft 492 kts 281°
2026-05-07 00:13 16.91973 86.37915 33843 ft 491 kts 281°
2026-05-07 00:14 16.93598 86.30972 33843 ft 491 kts 281°
2026-05-07 00:14 16.95219 86.24036 33844 ft 491 kts 281°
2026-05-07 00:15 16.96837 86.17100 33842 ft 491 kts 281°
2026-05-07 00:15 16.98454 86.10158 33844 ft 492 kts 281°
2026-05-07 00:16 17.00064 86.03240 33845 ft 493 kts 281°
2026-05-07 00:16 17.01682 85.96272 33854 ft 493 kts 281°
2026-05-07 00:17 17.03297 85.89303 33841 ft 493 kts 281°
2026-05-07 00:17 17.04908 85.82340 33842 ft 492 kts 281°
2026-05-07 00:18 17.06515 85.75393 33845 ft 491 kts 281°
2026-05-07 00:18 17.08106 85.68495 33845 ft 491 kts 281°
2026-05-07 00:19 17.09704 85.61559 33842 ft 490 kts 281°
2026-05-07 00:19 17.11300 85.54618 33844 ft 490 kts 281°
2026-05-07 00:20 17.12891 85.47682 33846 ft 490 kts 281°
2026-05-07 00:20 17.14480 85.40746 33845 ft 491 kts 281°
2026-05-07 00:21 17.16070 85.33798 33848 ft 491 kts 281°
2026-05-07 00:21 17.17666 85.26880 33846 ft 492 kts 281°
2026-05-07 00:22 17.19323 85.19933 33843 ft 492 kts 281°
2026-05-07 00:22 17.20985 85.12976 33845 ft 493 kts 281°
2026-05-07 00:23 17.22637 85.06013 33846 ft 493 kts 281°
2026-05-07 00:23 17.24271 84.99099 33847 ft 493 kts 281°
2026-05-07 00:24 17.25913 84.92141 33843 ft 492 kts 281°
2026-05-07 00:24 17.27553 84.85178 33841 ft 492 kts 281°
2026-05-07 00:25 17.29114 84.78546 33847 ft 492 kts 281°
2026-05-07 00:25 17.30747 84.71593 33848 ft 491 kts 281°
2026-05-07 00:26 17.32375 84.64650 33846 ft 491 kts 281°
2026-05-07 00:26 17.33988 84.57757 33854 ft 490 kts 281°
2026-05-07 00:27 17.35605 84.50842 33841 ft 488 kts 281°
2026-05-07 00:27 17.37264 84.43955 33847 ft 487 kts 282°
2026-05-07 00:28 17.38971 84.37097 33843 ft 487 kts 282°
2026-05-07 00:28 17.40669 84.30241 33846 ft 486 kts 282°
2026-05-07 00:29 17.42348 84.23409 33849 ft 487 kts 282°
2026-05-07 00:30 17.45717 84.09650 33850 ft 488 kts 282°
2026-05-07 00:30 17.47403 84.02749 33846 ft 488 kts 282°
2026-05-07 00:31 17.49088 83.95848 33842 ft 489 kts 282°
2026-05-07 00:31 17.50783 83.88947 33845 ft 489 kts 282°
2026-05-07 00:32 17.52533 83.82091 33843 ft 490 kts 282°
2026-05-07 00:32 17.54299 83.75198 33848 ft 490 kts 282°
2026-05-07 00:33 17.56055 83.68293 33844 ft 490 kts 282°
2026-05-07 00:33 17.57801 83.61402 33830 ft 490 kts 282°
2026-05-07 00:34 17.59546 83.54502 33839 ft 490 kts 282°
2026-05-07 00:34 17.61287 83.47602 33838 ft 489 kts 282°
2026-05-07 00:35 17.63028 83.40699 33840 ft 489 kts 282°
2026-05-07 00:35 17.64765 83.33803 33847 ft 489 kts 282°
2026-05-07 00:36 17.66486 83.26954 33859 ft 488 kts 282°
2026-05-07 00:36 17.68504 83.20140 33860 ft 489 kts 286°
2026-05-07 00:37 17.70714 83.13391 33858 ft 489 kts 287°
2026-05-07 00:37 17.72924 83.06633 33850 ft 489 kts 286°
2026-05-07 00:38 17.75111 82.99870 33853 ft 489 kts 286°
2026-05-07 00:38 17.77284 82.93111 33862 ft 489 kts 286°
2026-05-07 00:39 17.79443 82.86385 33865 ft 489 kts 286°
2026-05-07 00:39 17.81611 82.79621 33881 ft 489 kts 286°
2026-05-07 00:40 17.83782 82.72843 33898 ft 489 kts 286°
2026-05-07 00:40 17.85950 82.66070 33896 ft 489 kts 286°
2026-05-07 00:41 17.88116 82.59295 33907 ft 489 kts 286°
2026-05-07 00:41 17.90279 82.52514 33908 ft 489 kts 286°
2026-05-07 00:42 17.92441 82.45731 33913 ft 490 kts 286°
2026-05-07 00:42 17.94586 82.38989 33912 ft 490 kts 286°
2026-05-07 00:43 17.96742 82.32206 33900 ft 489 kts 286°
2026-05-07 00:43 17.98892 82.25434 33905 ft 488 kts 286°
2026-05-07 00:44 18.01034 82.18675 33894 ft 487 kts 286°
2026-05-07 00:44 18.03170 82.11925 33898 ft 487 kts 286°
2026-05-07 00:45 18.05307 82.05167 33884 ft 487 kts 286°
2026-05-07 00:45 18.07443 81.98414 33886 ft 487 kts 286°
2026-05-07 00:46 18.09644 81.91669 33874 ft 488 kts 287°
2026-05-07 00:46 18.11872 81.84926 33874 ft 488 kts 287°
2026-05-07 00:47 18.14089 81.78182 33860 ft 489 kts 287°
2026-05-07 00:47 18.16301 81.71419 33859 ft 489 kts 287°
2026-05-07 00:48 18.18493 81.64699 33858 ft 489 kts 287°
2026-05-07 00:48 18.20696 81.57941 33857 ft 489 kts 287°
2026-05-07 00:49 18.22896 81.51186 33855 ft 488 kts 287°
2026-05-07 00:49 18.25091 81.44433 33869 ft 488 kts 287°
2026-05-07 00:50 18.27283 81.37684 33863 ft 487 kts 287°
2026-05-07 00:50 18.29467 81.30946 33859 ft 486 kts 287°
2026-05-07 00:51 18.31647 81.24219 33860 ft 485 kts 287°
2026-05-07 00:51 18.33821 81.17497 33858 ft 485 kts 286°
2026-05-07 00:52 18.35991 81.10773 33861 ft 485 kts 286°
2026-05-07 00:52 18.38159 81.04051 33860 ft 485 kts 286°
2026-05-07 00:53 18.40328 80.97317 33861 ft 485 kts 286°
2026-05-07 00:53 18.42494 80.90585 33852 ft 486 kts 286°
2026-05-07 00:54 18.44658 80.83847 33858 ft 486 kts 286°
2026-05-07 00:54 18.46819 80.77109 33854 ft 486 kts 286°
2026-05-07 00:55 18.48979 80.70366 33850 ft 485 kts 286°
2026-05-07 00:55 18.51135 80.63626 33853 ft 485 kts 286°
2026-05-07 00:56 18.53286 80.56881 33853 ft 486 kts 286°
2026-05-07 00:56 18.55340 80.50116 33854 ft 490 kts 285°
2026-05-07 00:57 18.57382 80.43242 33852 ft 493 kts 285°
2026-05-07 00:57 18.59440 80.36332 33851 ft 494 kts 285°
2026-05-07 00:58 18.61503 80.29434 33839 ft 493 kts 285°
2026-05-07 00:58 18.63557 80.22567 33840 ft 490 kts 285°
2026-05-07 00:59 18.66270 80.13479 33840 ft 487 kts 285°
2026-05-07 01:00 18.68296 80.06677 33843 ft 486 kts 285°
2026-05-07 01:00 18.70319 79.99878 33849 ft 485 kts 285°
2026-05-07 01:01 18.72335 79.93089 33855 ft 486 kts 285°
2026-05-07 01:01 18.74355 79.86279 33854 ft 486 kts 285°
2026-05-07 01:02 18.76374 79.79460 33845 ft 487 kts 285°
2026-05-07 01:02 18.78395 79.72627 33851 ft 488 kts 285°
2026-05-07 01:03 18.80419 79.65776 33857 ft 489 kts 285°
2026-05-07 01:03 18.82441 79.58919 33855 ft 490 kts 285°
2026-05-07 01:04 18.84463 79.52053 33857 ft 489 kts 285°
2026-05-07 01:04 18.86475 79.45206 33849 ft 488 kts 285°
2026-05-07 01:05 18.88481 79.38372 33852 ft 488 kts 285°
2026-05-07 01:05 18.90492 79.31512 33857 ft 490 kts 285°
2026-05-07 01:06 18.92495 79.24666 33858 ft 493 kts 285°
2026-05-07 01:06 18.94518 79.17742 33850 ft 492 kts 285°
2026-05-07 01:07 18.96519 79.10898 33844 ft 484 kts 285°
2026-05-07 01:07 18.98502 79.04090 33860 ft 485 kts 285°
2026-05-07 01:08 19.00483 78.97278 33853 ft 485 kts 285°
2026-05-07 01:08 19.02466 78.90455 33853 ft 486 kts 285°
2026-05-07 01:09 19.04447 78.83625 33854 ft 486 kts 285°
2026-05-07 01:09 19.06427 78.76789 33851 ft 487 kts 285°
2026-05-07 01:10 19.08405 78.69951 33850 ft 487 kts 285°
2026-05-07 01:10 19.10380 78.63109 33851 ft 486 kts 285°
2026-05-07 01:11 19.12347 78.56289 33853 ft 484 kts 285°
2026-05-07 01:11 19.14304 78.49493 33845 ft 482 kts 285°
2026-05-07 01:12 19.16251 78.42718 33861 ft 481 kts 285°
2026-05-07 01:12 19.18190 78.35965 33857 ft 480 kts 285°
2026-05-07 01:13 19.20127 78.29205 33857 ft 480 kts 285°
2026-05-07 01:13 19.22059 78.22450 33858 ft 480 kts 285°
2026-05-07 01:14 19.23990 78.15690 33862 ft 480 kts 285°
2026-05-07 01:14 19.25363 78.08785 33856 ft 481 kts 275°
2026-05-07 01:15 19.26036 78.01720 33861 ft 484 kts 275°
2026-05-07 01:15 19.26714 77.94662 33856 ft 486 kts 275°
2026-05-07 01:16 19.27421 77.87538 33859 ft 487 kts 276°
2026-05-07 01:16 19.28136 77.80424 33857 ft 486 kts 276°
2026-05-07 01:17 19.28846 77.73330 33859 ft 484 kts 276°
2026-05-07 01:17 19.29549 77.66262 33851 ft 482 kts 276°
2026-05-07 01:18 19.30249 77.59210 33857 ft 481 kts 275°
2026-05-07 01:18 19.30942 77.52174 33856 ft 481 kts 275°
2026-05-07 01:19 19.31633 77.45135 33861 ft 481 kts 275°
2026-05-07 01:19 19.32323 77.38088 33856 ft 481 kts 275°
2026-05-07 01:20 19.33011 77.31038 33854 ft 482 kts 275°
2026-05-07 01:20 19.33695 77.23984 33855 ft 482 kts 275°
2026-05-07 01:21 19.34379 77.16921 33863 ft 482 kts 275°
2026-05-07 01:21 19.35059 77.09861 33863 ft 482 kts 275°
2026-05-07 01:22 19.35736 77.02793 33857 ft 482 kts 275°
2026-05-07 01:22 19.36410 76.95732 33861 ft 482 kts 275°
2026-05-07 01:23 19.37082 76.88676 33855 ft 482 kts 275°
2026-05-07 01:23 19.37755 76.81612 33848 ft 482 kts 275°
2026-05-07 01:24 19.38493 76.74545 33858 ft 484 kts 276°
2026-05-07 01:24 19.39254 76.67461 33857 ft 484 kts 276°
2026-05-07 01:25 19.40006 76.60368 33847 ft 485 kts 275°
2026-05-07 01:25 19.40749 76.53265 33853 ft 485 kts 275°
2026-05-07 01:26 19.41484 76.46202 33850 ft 486 kts 275°
2026-05-07 01:26 19.42221 76.39085 33853 ft 486 kts 275°
2026-05-07 01:27 19.42956 76.31960 33847 ft 486 kts 275°
2026-05-07 01:27 19.43689 76.24841 33849 ft 486 kts 275°
2026-05-07 01:28 19.44420 76.17714 33851 ft 486 kts 275°
2026-05-07 01:28 19.45147 76.10592 33850 ft 486 kts 275°
2026-05-07 01:29 19.45871 76.03465 33856 ft 487 kts 275°
2026-05-07 01:29 19.46593 75.96330 33854 ft 487 kts 275°
2026-05-07 01:30 19.47312 75.89198 33854 ft 487 kts 275°
2026-05-07 01:30 19.48029 75.82073 33858 ft 487 kts 275°
2026-05-07 01:31 19.48743 75.74930 33853 ft 487 kts 275°
2026-05-07 01:31 19.49455 75.67786 33865 ft 488 kts 275°
2026-05-07 01:32 19.50169 75.60624 33862 ft 489 kts 275°
2026-05-07 01:32 19.50896 75.53451 33861 ft 490 kts 275°
2026-05-07 01:33 19.51624 75.46276 33865 ft 490 kts 275°
2026-05-07 01:33 19.52349 75.39092 33862 ft 490 kts 275°
2026-05-07 01:34 19.53069 75.31907 33875 ft 490 kts 275°
2026-05-07 01:34 19.53779 75.24792 33866 ft 488 kts 275°
2026-05-07 01:35 19.54489 75.17649 33859 ft 486 kts 275°
2026-05-07 01:35 19.55193 75.10530 33860 ft 485 kts 275°
2026-05-07 01:36 19.55893 75.03426 33884 ft 484 kts 275°
2026-05-07 01:36 19.56590 74.96326 33883 ft 484 kts 275°
2026-05-07 01:37 19.57285 74.89219 33882 ft 484 kts 275°
2026-05-07 01:37 19.57977 74.82112 33885 ft 485 kts 275°
2026-05-07 01:38 19.58667 74.74994 33882 ft 486 kts 275°
2026-05-07 01:38 19.59355 74.67867 33882 ft 486 kts 275°
2026-05-07 01:39 19.60042 74.60737 33884 ft 486 kts 275°
2026-05-07 01:39 19.60676 74.53607 33882 ft 486 kts 272°
2026-05-07 01:40 19.60935 74.46441 33887 ft 486 kts 271°
2026-05-07 01:40 19.61142 74.39277 33885 ft 486 kts 271°
2026-05-07 01:41 19.61364 74.32112 33882 ft 486 kts 272°
2026-05-07 01:41 19.61596 74.24953 33885 ft 486 kts 272°
2026-05-07 01:42 19.61830 74.17788 33896 ft 486 kts 272°
2026-05-07 01:42 19.62058 74.10629 33891 ft 486 kts 272°
2026-05-07 01:43 19.62284 74.03466 33892 ft 486 kts 271°
2026-05-07 01:43 19.62506 73.96303 33894 ft 486 kts 272°
2026-05-07 01:44 19.62727 73.89131 33884 ft 487 kts 272°
2026-05-07 01:44 19.62945 73.81953 33891 ft 487 kts 272°
2026-05-07 01:45 19.63159 73.74769 33887 ft 488 kts 272°
2026-05-07 01:45 19.63434 73.68796 33886 ft 488 kts 276°
2026-05-07 01:46 19.65002 73.60613 33872 ft 488 kts 286°
2026-05-07 01:46 19.66994 73.53732 33873 ft 488 kts 286°
2026-05-07 01:47 19.68647 73.48002 33860 ft 488 kts 286°
2026-05-07 01:47 19.70618 73.41069 33877 ft 487 kts 286°
2026-05-07 01:48 19.72546 73.34231 33847 ft 486 kts 286°
2026-05-07 01:48 19.74473 73.27370 33842 ft 484 kts 286°
2026-05-07 01:49 19.76393 73.20522 33835 ft 484 kts 286°
2026-05-07 01:49 19.78312 73.13673 33839 ft 484 kts 286°
2026-05-07 01:50 19.80229 73.06823 33833 ft 484 kts 286°
2026-05-07 01:50 19.82145 72.99962 33834 ft 485 kts 286°
2026-05-07 01:51 19.84061 72.93093 33811 ft 485 kts 286°
2026-05-07 01:51 19.85977 72.86209 33816 ft 486 kts 286°
2026-05-07 01:52 19.87895 72.79310 33816 ft 487 kts 286°
2026-05-07 01:52 19.89815 72.72392 33809 ft 488 kts 286°
2026-05-07 01:53 19.91730 72.65479 33814 ft 488 kts 286°
2026-05-07 01:53 19.93646 72.58556 33819 ft 488 kts 286°
2026-05-07 01:54 19.95557 72.51635 33818 ft 487 kts 286°
2026-05-07 01:54 19.97461 72.44727 33816 ft 487 kts 286°
2026-05-07 01:55 19.99360 72.37828 33818 ft 486 kts 285°
2026-05-07 01:55 20.01254 72.30936 33819 ft 485 kts 285°
2026-05-07 01:56 20.03144 72.24048 33811 ft 485 kts 286°
2026-05-07 01:56 20.05019 72.17202 33815 ft 485 kts 285°
2026-05-07 01:57 20.06903 72.10309 33822 ft 486 kts 285°
2026-05-07 01:57 20.08790 72.03399 33823 ft 486 kts 285°
2026-05-07 01:58 20.10675 71.96484 33824 ft 487 kts 285°
2026-05-07 01:58 20.12558 71.89564 33821 ft 487 kts 286°
2026-05-07 01:59 20.14440 71.82633 33826 ft 488 kts 285°
2026-05-07 01:59 20.16321 71.75696 33824 ft 488 kts 285°
2026-05-07 02:00 20.18196 71.68768 33824 ft 487 kts 286°
2026-05-07 02:00 20.20064 71.61855 33823 ft 485 kts 286°
2026-05-07 02:01 20.21941 71.54961 33819 ft 484 kts 287°
2026-05-07 02:01 20.24068 71.48157 33823 ft 484 kts 289°
2026-05-07 02:02 20.26285 71.41384 33820 ft 485 kts 289°
2026-05-07 02:02 20.28477 71.34582 33824 ft 485 kts 288°
2026-05-07 02:03 20.30637 71.27770 33827 ft 486 kts 288°
2026-05-07 02:03 20.32789 71.20941 33823 ft 487 kts 288°
2026-05-07 02:04 20.34941 71.14101 33823 ft 487 kts 288°
2026-05-07 02:04 20.37093 71.07258 33825 ft 487 kts 288°
2026-05-07 02:05 20.39241 71.00420 33829 ft 487 kts 288°
2026-05-07 02:05 20.41386 70.93582 33833 ft 486 kts 288°
2026-05-07 02:06 20.43522 70.86762 33822 ft 484 kts 288°
2026-05-07 02:06 20.45648 70.79962 33826 ft 483 kts 288°
2026-05-07 02:07 20.47768 70.73172 33837 ft 482 kts 288°
2026-05-07 02:07 20.50938 70.62999 33838 ft 483 kts 288°
2026-05-07 02:08 20.53062 70.56169 33834 ft 487 kts 288°
2026-05-07 02:08 20.55182 70.49339 33832 ft 489 kts 288°
2026-05-07 02:09 20.57317 70.42448 33837 ft 489 kts 288°
2026-05-07 02:09 20.59450 70.35558 33832 ft 489 kts 288°
2026-05-07 02:10 20.61577 70.28673 33835 ft 488 kts 288°
2026-05-07 02:10 20.63697 70.21806 33846 ft 486 kts 288°
2026-05-07 02:11 20.65801 70.14979 33834 ft 483 kts 288°
2026-05-07 02:11 20.67892 70.08182 33836 ft 481 kts 288°
2026-05-07 02:12 20.69970 70.01415 33838 ft 479 kts 288°
2026-05-07 02:12 20.72044 69.94653 33839 ft 479 kts 288°
2026-05-07 02:13 20.74116 69.87887 33842 ft 480 kts 288°
2026-05-07 02:13 20.76188 69.81108 33843 ft 481 kts 288°
2026-05-07 02:14 20.78263 69.74309 33848 ft 482 kts 288°
2026-05-07 02:14 20.80343 69.67487 33846 ft 483 kts 288°
2026-05-07 02:15 20.82421 69.60660 33846 ft 484 kts 288°
2026-05-07 02:15 20.84498 69.53821 33847 ft 484 kts 288°
2026-05-07 02:16 20.86574 69.46974 33844 ft 484 kts 288°
2026-05-07 02:16 20.88649 69.40126 33849 ft 484 kts 288°
2026-05-07 02:17 20.90721 69.33272 33846 ft 484 kts 288°
2026-05-07 02:17 20.92777 69.26459 33848 ft 484 kts 288°
2026-05-07 02:18 20.94843 69.19602 33846 ft 484 kts 288°
2026-05-07 02:18 20.96908 69.12746 33847 ft 484 kts 288°
2026-05-07 02:19 20.99431 69.06067 33853 ft 484 kts 294°
2026-05-07 02:19 21.02219 68.99506 33845 ft 485 kts 294°
2026-05-07 02:20 21.05001 68.92928 33847 ft 485 kts 294°
2026-05-07 02:20 21.07760 68.86341 33846 ft 485 kts 294°
2026-05-07 02:21 21.10511 68.79739 33849 ft 485 kts 294°
2026-05-07 02:21 21.13255 68.73142 33849 ft 485 kts 294°
2026-05-07 02:22 21.15995 68.66545 33849 ft 485 kts 294°
2026-05-07 02:22 21.18734 68.59949 33851 ft 484 kts 294°
2026-05-07 02:23 21.21468 68.53359 33849 ft 484 kts 294°
2026-05-07 02:23 21.24180 68.46809 33846 ft 484 kts 294°
2026-05-07 02:24 21.26912 68.40204 33852 ft 485 kts 294°
2026-05-07 02:24 21.29643 68.33592 33848 ft 485 kts 294°
2026-05-07 02:25 21.32375 68.26967 33860 ft 486 kts 294°
2026-05-07 02:25 21.35107 68.20335 33848 ft 486 kts 294°
2026-05-07 02:26 21.37834 68.13708 33841 ft 486 kts 294°
2026-05-07 02:26 21.40561 68.07068 33848 ft 486 kts 294°
2026-05-07 02:27 21.43285 68.00429 33847 ft 486 kts 294°
2026-05-07 02:27 21.46010 67.93779 33848 ft 486 kts 294°
2026-05-07 02:28 21.48731 67.87127 33846 ft 486 kts 294°
2026-05-07 02:28 21.51450 67.80475 33848 ft 486 kts 294°
2026-05-07 02:29 21.54166 67.73822 33849 ft 486 kts 294°
2026-05-07 02:29 21.56879 67.67163 33849 ft 486 kts 294°
2026-05-07 02:30 21.59586 67.60513 33845 ft 486 kts 294°
2026-05-07 02:30 21.62290 67.53859 33836 ft 485 kts 294°
2026-05-07 02:31 21.64991 67.47207 33841 ft 486 kts 294°
2026-05-07 02:31 21.67691 67.40544 33847 ft 486 kts 294°
2026-05-07 02:32 21.70393 67.33873 33843 ft 487 kts 294°
2026-05-07 02:32 21.72639 67.28317 33843 ft 487 kts 294°
2026-05-07 02:33 21.75339 67.21626 33835 ft 488 kts 294°
2026-05-07 02:33 21.78042 67.14924 33850 ft 488 kts 294°
2026-05-07 02:34 21.80743 67.08216 33840 ft 489 kts 294°
2026-05-07 02:34 21.83443 67.01502 33839 ft 489 kts 294°
2026-05-07 02:35 21.86139 66.94789 33842 ft 489 kts 294°
2026-05-07 02:35 21.88834 66.88069 33836 ft 489 kts 294°
2026-05-07 02:36 21.91522 66.81354 33839 ft 489 kts 294°
2026-05-07 02:36 21.94213 66.74627 33842 ft 489 kts 294°
2026-05-07 02:37 21.96899 66.67899 33843 ft 489 kts 294°
2026-05-07 02:37 21.99584 66.61164 33847 ft 489 kts 294°
2026-05-07 02:38 22.02248 66.54474 33835 ft 489 kts 294°
2026-05-07 02:38 22.04927 66.47737 33842 ft 489 kts 294°
2026-05-07 02:39 22.07605 66.40997 33841 ft 489 kts 294°
2026-05-07 02:39 22.10281 66.34248 33837 ft 489 kts 294°
2026-05-07 02:40 22.12954 66.27498 33840 ft 490 kts 294°
2026-05-07 02:40 22.15625 66.20741 33835 ft 490 kts 294°
2026-05-07 02:41 22.18296 66.13976 33844 ft 490 kts 294°
2026-05-07 02:41 22.20966 66.07200 33849 ft 491 kts 294°
2026-05-07 02:42 22.23637 66.00417 33846 ft 491 kts 294°
2026-05-07 02:42 22.26302 65.93640 33836 ft 491 kts 294°
2026-05-07 02:43 22.28965 65.86855 33835 ft 491 kts 293°
2026-05-07 02:43 22.31626 65.80066 33840 ft 491 kts 293°
2026-05-07 02:44 22.34282 65.73279 33839 ft 491 kts 293°
2026-05-07 02:44 22.36938 65.66485 33839 ft 491 kts 293°
2026-05-07 02:45 22.39590 65.59689 33835 ft 491 kts 293°
2026-05-07 02:45 22.42242 65.52884 33851 ft 491 kts 293°
2026-05-07 02:46 22.44889 65.46082 33841 ft 491 kts 293°
2026-05-07 02:46 22.47517 65.39322 33838 ft 491 kts 293°
2026-05-07 02:47 22.50155 65.32522 33839 ft 490 kts 293°
2026-05-07 02:47 22.52787 65.25726 33837 ft 490 kts 293°
2026-05-07 02:48 22.55420 65.18922 33842 ft 490 kts 293°
2026-05-07 02:48 22.58048 65.12117 33841 ft 491 kts 293°
2026-05-07 02:49 22.60678 65.05299 33839 ft 491 kts 293°
2026-05-07 02:49 22.63308 64.98471 33843 ft 491 kts 293°
2026-05-07 02:50 22.65934 64.91643 33836 ft 491 kts 293°
2026-05-07 02:50 22.68556 64.84815 33839 ft 491 kts 293°
2026-05-07 02:51 22.71176 64.77982 33838 ft 491 kts 293°
2026-05-07 02:51 22.73795 64.71144 33835 ft 491 kts 293°
2026-05-07 02:52 22.76407 64.64309 33832 ft 491 kts 293°
2026-05-07 02:52 22.79016 64.57472 33834 ft 491 kts 293°
2026-05-07 02:53 22.81607 64.50678 33837 ft 491 kts 293°
2026-05-07 02:53 22.84211 64.43836 33842 ft 491 kts 293°
2026-05-07 02:54 22.86810 64.36996 33834 ft 490 kts 293°
2026-05-07 02:54 22.89403 64.30162 33828 ft 490 kts 292°
2026-05-07 02:55 22.91991 64.23333 33833 ft 489 kts 292°
2026-05-07 02:55 22.94573 64.16505 33834 ft 489 kts 292°
2026-05-07 02:56 22.97153 64.09673 33835 ft 489 kts 292°
2026-05-07 02:56 22.99733 64.02831 33827 ft 490 kts 292°
2026-05-07 02:57 23.02311 63.95985 33830 ft 491 kts 292°
2026-05-07 02:57 23.04669 63.89032 33830 ft 492 kts 285°
2026-05-07 02:58 23.05861 63.81723 33838 ft 493 kts 276°
2026-05-07 02:58 23.06041 63.74268 33836 ft 494 kts 271°
2026-05-07 02:59 23.06066 63.66799 33827 ft 495 kts 271°
2026-05-07 02:59 23.06111 63.59329 33833 ft 495 kts 271°
2026-05-07 03:00 23.06182 63.51855 33830 ft 495 kts 271°
2026-05-07 03:00 23.06258 63.44389 33835 ft 494 kts 271°
2026-05-07 03:01 23.06331 63.36975 33832 ft 494 kts 271°
2026-05-07 03:01 23.06399 63.29517 33831 ft 494 kts 271°
2026-05-07 03:02 23.06462 63.22063 33828 ft 493 kts 271°
2026-05-07 03:02 23.06521 63.14614 33829 ft 493 kts 271°
2026-05-07 03:03 23.06578 63.07167 33832 ft 494 kts 271°
2026-05-07 03:03 23.06632 62.99707 33827 ft 494 kts 271°
2026-05-07 03:04 23.06681 62.92262 33827 ft 494 kts 271°
2026-05-07 03:04 23.06727 62.84806 33828 ft 494 kts 271°
2026-05-07 03:05 23.06770 62.77344 33829 ft 494 kts 271°
2026-05-07 03:05 23.06809 62.69898 33830 ft 493 kts 271°
2026-05-07 03:06 23.06845 62.62442 33828 ft 493 kts 271°
2026-05-07 03:06 23.06877 62.54996 33833 ft 493 kts 271°
2026-05-07 03:07 23.06906 62.47552 33834 ft 493 kts 271°
2026-05-07 03:07 23.06931 62.40122 33823 ft 492 kts 271°
2026-05-07 03:08 23.06952 62.32687 33827 ft 492 kts 271°
2026-05-07 03:08 23.06970 62.25257 33827 ft 492 kts 271°
2026-05-07 03:09 23.06985 62.17832 33827 ft 492 kts 271°
2026-05-07 03:09 23.06995 62.10410 33823 ft 491 kts 271°
2026-05-07 03:10 23.07004 62.02993 33828 ft 491 kts 271°
2026-05-07 03:10 23.07008 61.95582 33829 ft 491 kts 271°
2026-05-07 03:11 23.07009 61.88158 33821 ft 491 kts 271°
2026-05-07 03:11 23.07006 61.80745 33822 ft 491 kts 271°
2026-05-07 03:12 23.07000 61.73327 33819 ft 491 kts 271°
2026-05-07 03:12 23.06977 61.65920 33820 ft 491 kts 270°
2026-05-07 03:13 23.06945 61.58504 33819 ft 491 kts 270°
2026-05-07 03:13 23.06913 61.51095 33825 ft 491 kts 270°
2026-05-07 03:14 23.06372 61.43702 33829 ft 492 kts 263°
2026-05-07 03:15 23.04847 61.32678 33820 ft 492 kts 263°
2026-05-07 03:15 23.03856 61.25320 33819 ft 492 kts 263°
2026-05-07 03:16 23.02881 61.17964 33817 ft 492 kts 263°
2026-05-07 03:16 23.01905 61.10609 33818 ft 493 kts 263°
2026-05-07 03:17 23.00922 61.03247 33813 ft 493 kts 263°
2026-05-07 03:17 22.99936 60.95890 33822 ft 493 kts 263°
2026-05-07 03:18 22.98954 60.88577 33826 ft 493 kts 263°
2026-05-07 03:18 22.97967 60.81216 33818 ft 493 kts 263°
2026-05-07 03:19 22.96977 60.73851 33819 ft 493 kts 263°
2026-05-07 03:19 22.95982 60.66485 33822 ft 494 kts 263°
2026-05-07 03:20 22.94984 60.59115 33812 ft 494 kts 263°
2026-05-07 03:20 22.93983 60.51749 33813 ft 494 kts 263°
2026-05-07 03:21 22.93148 60.45623 33818 ft 494 kts 262°
2026-05-07 03:21 22.92140 60.38256 33813 ft 494 kts 262°
2026-05-07 03:22 22.91128 60.30891 33811 ft 494 kts 262°
2026-05-07 03:22 22.90113 60.23512 33814 ft 494 kts 262°
2026-05-07 03:23 22.89086 60.16145 33804 ft 494 kts 262°
2026-05-07 03:23 22.88050 60.08788 33820 ft 493 kts 262°
2026-05-07 03:24 22.87014 60.01438 33800 ft 493 kts 262°
2026-05-07 03:24 22.85978 59.94096 33794 ft 493 kts 262°
2026-05-07 03:25 22.84938 59.86752 33803 ft 493 kts 262°
2026-05-07 03:25 22.83917 59.79408 33808 ft 492 kts 262°
2026-05-07 03:26 22.82902 59.72066 33803 ft 492 kts 262°
2026-05-07 03:26 22.81881 59.64724 33794 ft 493 kts 262°
2026-05-07 03:27 22.80855 59.57388 33796 ft 492 kts 262°
2026-05-07 03:27 22.79825 59.50050 33810 ft 492 kts 262°
2026-05-07 03:28 22.78799 59.42763 33822 ft 492 kts 262°
2026-05-07 03:28 22.77764 59.35431 33836 ft 492 kts 262°
2026-05-07 03:29 22.76715 59.28101 33834 ft 492 kts 262°
2026-05-07 03:29 22.75659 59.20768 33854 ft 492 kts 262°
2026-05-07 03:30 22.74594 59.13387 33868 ft 493 kts 262°
2026-05-07 03:30 22.73533 59.06049 33879 ft 493 kts 262°
2026-05-07 03:31 22.72470 58.98715 33896 ft 493 kts 262°
2026-05-07 03:31 22.71402 58.91375 33888 ft 493 kts 262°
2026-05-07 03:32 22.70337 58.84090 33891 ft 493 kts 261°
2026-05-07 03:32 22.69263 58.76756 33901 ft 493 kts 261°
2026-05-07 03:33 22.68188 58.69432 33901 ft 492 kts 261°
2026-05-07 03:33 22.67563 58.62069 33897 ft 491 kts 272°
2026-05-07 03:34 22.68375 58.54731 33910 ft 492 kts 283°
2026-05-07 03:34 22.70235 58.47612 33912 ft 492 kts 286°
2026-05-07 03:35 22.72176 58.40499 33908 ft 493 kts 285°
2026-05-07 03:35 22.74077 58.33357 33912 ft 493 kts 285°
2026-05-07 03:36 22.75948 58.26205 33903 ft 494 kts 285°
2026-05-07 03:36 22.77809 58.19052 33911 ft 493 kts 285°
2026-05-07 03:37 22.79667 58.11905 33907 ft 492 kts 285°
2026-05-07 03:37 22.81521 58.04765 33912 ft 492 kts 285°
2026-05-07 03:38 22.83369 57.97632 33910 ft 492 kts 285°
2026-05-07 03:38 22.85214 57.90497 33921 ft 492 kts 285°
2026-05-07 03:39 22.87058 57.83354 33918 ft 492 kts 285°
2026-05-07 03:39 22.88905 57.76189 33930 ft 495 kts 285°
2026-05-07 03:40 22.90715 57.68967 33936 ft 498 kts 284°
2026-05-07 03:40 22.92496 57.61719 33930 ft 496 kts 284°
2026-05-07 03:41 22.94273 57.54501 33953 ft 494 kts 284°
2026-05-07 03:41 22.96043 57.47318 33955 ft 492 kts 284°
2026-05-07 03:42 22.97805 57.40160 33970 ft 490 kts 284°
2026-05-07 03:42 22.99056 57.32944 33972 ft 486 kts 268°
2026-05-07 03:43 22.97813 57.25760 33958 ft 488 kts 249°
2026-05-07 03:43 22.94711 57.19219 33948 ft 489 kts 242°
2026-05-07 03:44 22.91506 57.12735 33942 ft 492 kts 243°
2026-05-07 03:44 22.88338 57.06145 33960 ft 493 kts 243°
2026-05-07 03:45 22.85190 56.99537 33937 ft 493 kts 243°
2026-05-07 03:45 22.82034 56.92935 33928 ft 493 kts 243°
2026-05-07 03:46 22.78876 56.86340 33937 ft 492 kts 243°
2026-05-07 03:46 22.75725 56.79759 33920 ft 492 kts 243°
2026-05-07 03:47 22.72578 56.73193 33914 ft 491 kts 243°
2026-05-07 03:47 22.69432 56.66641 33914 ft 490 kts 243°
2026-05-07 03:48 22.66285 56.60093 33926 ft 490 kts 243°
2026-05-07 03:48 22.63135 56.53547 33920 ft 491 kts 243°
2026-05-07 03:49 22.59974 56.46988 33918 ft 492 kts 243°
2026-05-07 03:49 22.56801 56.40409 33912 ft 494 kts 243°
2026-05-07 03:50 22.53615 56.33820 33912 ft 495 kts 243°
2026-05-07 03:50 22.50417 56.27230 33906 ft 495 kts 243°
2026-05-07 03:51 22.47215 56.20640 33904 ft 495 kts 243°
2026-05-07 03:51 22.44015 56.14058 33905 ft 494 kts 243°
2026-05-07 03:52 22.40837 56.07529 33900 ft 494 kts 243°
2026-05-07 03:52 22.37634 56.00958 33885 ft 494 kts 243°
2026-05-07 03:53 22.34421 55.94408 33900 ft 494 kts 242°
2026-05-07 03:53 22.31196 55.87859 33897 ft 493 kts 242°
2026-05-07 03:54 22.27977 55.81318 33891 ft 494 kts 242°
2026-05-07 03:54 22.24753 55.74774 33872 ft 493 kts 242°
2026-05-07 03:55 22.21533 55.68230 33876 ft 494 kts 242°
2026-05-07 03:55 22.18320 55.61684 33874 ft 493 kts 244°
2026-05-07 03:56 22.16365 55.54642 33893 ft 493 kts 262°
2026-05-07 03:56 22.16289 55.47259 33892 ft 494 kts 275°
2026-05-07 03:57 22.16995 55.39875 33877 ft 495 kts 275°
2026-05-07 03:57 22.17661 55.32482 33881 ft 495 kts 274°
2026-05-07 03:58 22.18263 55.25133 33881 ft 495 kts 274°
2026-05-07 03:58 22.18855 55.17721 33868 ft 496 kts 274°
2026-05-07 03:59 22.19448 55.10311 33870 ft 496 kts 274°
2026-05-07 03:59 22.20040 55.02908 33863 ft 496 kts 274°
2026-05-07 04:00 22.20633 54.95493 33863 ft 496 kts 274°
2026-05-07 04:00 22.21222 54.88084 33863 ft 495 kts 274°
2026-05-07 04:01 22.21806 54.80675 33874 ft 495 kts 274°
2026-05-07 04:01 22.22387 54.73271 33863 ft 495 kts 274°
2026-05-07 04:02 22.22964 54.65878 33865 ft 494 kts 274°
2026-05-07 04:02 22.23537 54.58494 33861 ft 493 kts 274°
2026-05-07 04:03 22.24105 54.51121 33860 ft 492 kts 274°
2026-05-07 04:03 22.24670 54.43759 33857 ft 492 kts 273°
2026-05-07 04:04 22.25231 54.36396 33861 ft 493 kts 273°
2026-05-07 04:04 22.25789 54.29019 33855 ft 493 kts 273°
2026-05-07 04:05 22.26344 54.21641 33858 ft 493 kts 273°
2026-05-07 04:05 22.26896 54.14258 33858 ft 494 kts 273°
2026-05-07 04:06 22.27353 54.08113 33859 ft 494 kts 273°
2026-05-07 04:06 22.27901 54.00717 33860 ft 494 kts 273°
2026-05-07 04:07 22.28444 53.93322 33866 ft 494 kts 273°
2026-05-07 04:07 22.28983 53.85930 33854 ft 493 kts 273°
2026-05-07 04:08 22.29519 53.78552 33854 ft 493 kts 273°
2026-05-07 04:08 22.30051 53.71179 33849 ft 492 kts 273°
2026-05-07 04:09 22.30579 53.63815 33851 ft 492 kts 273°
2026-05-07 04:09 22.31104 53.56450 33854 ft 492 kts 273°
2026-05-07 04:10 22.31623 53.49085 33856 ft 492 kts 273°
2026-05-07 04:10 22.32138 53.41716 33854 ft 492 kts 273°
2026-05-07 04:11 22.32651 53.34343 33858 ft 492 kts 273°
2026-05-07 04:11 22.33160 53.26971 33857 ft 492 kts 273°
2026-05-07 04:12 22.33667 53.19590 33857 ft 493 kts 273°
2026-05-07 04:12 22.34170 53.12214 33860 ft 492 kts 272°
2026-05-07 04:13 22.34669 53.04852 33852 ft 491 kts 272°
2026-05-07 04:13 22.35163 52.97505 33853 ft 490 kts 272°
2026-05-07 04:14 22.35653 52.90165 33858 ft 490 kts 272°
2026-05-07 04:14 22.36140 52.82823 33860 ft 490 kts 272°
2026-05-07 04:15 22.36624 52.75491 33865 ft 489 kts 272°
2026-05-07 04:15 22.37104 52.68144 33868 ft 492 kts 272°
2026-05-07 04:16 22.37583 52.60756 33864 ft 494 kts 272°
2026-05-07 04:16 22.38060 52.53355 33861 ft 494 kts 272°
2026-05-07 04:17 22.38535 52.45963 33864 ft 493 kts 272°
2026-05-07 04:17 22.39005 52.38587 33870 ft 491 kts 272°
2026-05-07 04:18 22.39469 52.31235 33869 ft 490 kts 272°
2026-05-07 04:18 22.39928 52.23910 33872 ft 488 kts 272°
2026-05-07 04:19 22.40383 52.16611 33871 ft 486 kts 272°
2026-05-07 04:19 22.40834 52.09330 33872 ft 485 kts 272°
2026-05-07 04:20 22.41281 52.02101 33872 ft 485 kts 272°
2026-05-07 04:20 22.41727 51.94826 33872 ft 486 kts 272°
2026-05-07 04:21 22.42382 51.83841 33875 ft 490 kts 271°
2026-05-07 04:21 22.42816 51.76488 33872 ft 491 kts 271°
2026-05-07 04:22 22.43247 51.69133 33877 ft 490 kts 271°
2026-05-07 04:22 22.43676 51.61788 33885 ft 489 kts 272°
2026-05-07 04:23 22.44099 51.54473 33872 ft 486 kts 272°
2026-05-07 04:23 22.44517 51.47200 33874 ft 484 kts 272°
2026-05-07 04:24 22.44929 51.39954 33878 ft 482 kts 272°
2026-05-07 04:24 22.45318 51.32723 33829 ft 482 kts 272°
2026-05-07 04:25 22.45739 51.25497 33871 ft 481 kts 272°
2026-05-07 04:25 22.46153 51.21927 33865 ft 481 kts 283°
2026-05-07 04:25 22.47425 51.18572 33885 ft 487 kts 298°
2026-05-07 04:26 22.49498 51.15656 33885 ft 494 kts 312°
2026-05-07 04:26 22.52193 51.13319 33893 ft 501 kts 325°
2026-05-07 04:26 22.55342 51.11641 33904 ft 509 kts 336°
2026-05-07 04:26 22.58789 51.10688 33880 ft 518 kts 351°
2026-05-07 04:27 22.66036 51.11113 33892 ft 525 kts
2026-05-07 04:27 22.73317 51.11868 33890 ft 525 kts
2026-05-07 04:28 22.80600 51.12372 33883 ft 524 kts
2026-05-07 04:28 22.87866 51.12886 33889 ft 523 kts
2026-05-07 04:29 22.95128 51.13423 33887 ft 522 kts
2026-05-07 04:29 23.02374 51.13959 33887 ft 522 kts
2026-05-07 04:30 23.09618 51.14493 33897 ft 522 kts
2026-05-07 04:30 23.16811 51.15024 33890 ft 522 kts
2026-05-07 04:31 23.24064 51.15560 33886 ft 522 kts
2026-05-07 04:31 23.31320 51.16090 33885 ft 523 kts
2026-05-07 04:32 23.38583 51.16619 33882 ft 523 kts
2026-05-07 04:32 23.45848 51.17150 33887 ft 524 kts
2026-05-07 04:33 23.53124 51.17682 33883 ft 524 kts
2026-05-07 04:33 23.60400 51.18215 33887 ft 524 kts 360°
2026-05-07 04:34 23.67685 51.18749 33885 ft 525 kts 360°
2026-05-07 04:34 23.74986 51.19286 33880 ft 526 kts 360°
2026-05-07 04:35 23.82291 51.19823 33883 ft 526 kts 360°
2026-05-07 04:35 23.89604 51.20361 33875 ft 527 kts 360°
2026-05-07 04:36 23.96925 51.20901 33878 ft 528 kts 360°
2026-05-07 04:36 24.04267 51.21443 33876 ft 526 kts 360°
2026-05-07 04:37 24.07876 51.21714 33708 ft 513 kts 360°
2026-05-07 04:37 24.11427 51.21978 33004 ft 510 kts 359°
2026-05-07 04:37 24.14976 51.22238 31977 ft 514 kts 359°
2026-05-07 04:37 24.18518 51.22496 30928 ft 520 kts 360°
2026-05-07 04:38 24.22118 51.22763 30373 ft 514 kts
2026-05-07 04:38 24.25673 51.23030 30310 ft 497 kts 360°
2026-05-07 04:38 24.29060 51.23338 30199 ft 483 kts
2026-05-07 04:38 24.32239 51.24240 30112 ft 475 kts 18°
2026-05-07 04:39 24.35182 51.25815 30024 ft 466 kts 29°
2026-05-07 04:39 24.37773 51.27890 29854 ft 458 kts 41°
2026-05-07 04:39 24.40054 51.30298 29487 ft 452 kts 43°
2026-05-07 04:39 24.42286 51.32709 29061 ft 448 kts 43°
2026-05-07 04:40 24.44509 51.35080 28654 ft 444 kts 42°
2026-05-07 04:40 24.46732 51.37407 28228 ft 440 kts 42°
2026-05-07 04:40 24.48942 51.39698 27847 ft 435 kts 42°
2026-05-07 04:40 24.51165 51.41935 27470 ft 430 kts 38°
2026-05-07 04:41 24.53541 51.43886 27083 ft 424 kts 32°
2026-05-07 04:41 24.56046 51.45561 26718 ft 418 kts 25°
2026-05-07 04:41 24.58640 51.46964 26351 ft 413 kts 23°
2026-05-07 04:41 24.61222 51.48314 25975 ft 410 kts 23°
2026-05-07 04:42 24.63753 51.49648 25436 ft 396 kts 24°
2026-05-07 04:42 24.66210 51.50962 24587 ft 390 kts 24°
2026-05-07 04:42 24.68627 51.52264 23737 ft 384 kts 24°
2026-05-07 04:42 24.71024 51.53481 23040 ft 372 kts 22°
2026-05-07 04:43 24.73334 51.54583 22520 ft 354 kts 22°
2026-05-07 04:43 24.75548 51.55636 22035 ft 338 kts 22°
2026-05-07 04:43 24.77653 51.56650 21631 ft 322 kts 22°
2026-05-07 04:43 24.79666 51.57626 21064 ft 312 kts 22°
2026-05-07 04:44 24.81643 51.58587 20360 ft 309 kts 23°
2026-05-07 04:44 24.83617 51.59495 19632 ft 306 kts 11°
2026-05-07 04:44 24.85698 51.59454 18864 ft 300 kts 338°
2026-05-07 04:44 24.87393 51.58205 18119 ft 295 kts 308°
2026-05-07 04:45 24.88731 51.56505 17317 ft 294 kts 315°
2026-05-07 04:45 24.90246 51.54983 16537 ft 295 kts 319°
2026-05-07 04:45 24.91808 51.53536 15848 ft 292 kts 323°
2026-05-07 04:45 24.93615 51.52466 14759 ft 302 kts 347°
2026-05-07 04:46 24.95731 51.52323 13651 ft 311 kts 13°
2026-05-07 04:46 24.97716 51.53196 12667 ft 308 kts 37°
2026-05-07 04:46 24.99182 51.54880 11704 ft 305 kts 60°
2026-05-07 04:46 24.99948 51.57062 10619 ft 309 kts 77°
2026-05-07 04:47 25.00340 51.59395 9619 ft 312 kts 81°
2026-05-07 04:47 25.00632 51.61758 8703 ft 310 kts 82°
2026-05-07 04:47 25.00892 51.64074 8051 ft 298 kts 82°
2026-05-07 04:47 25.01129 51.66288 7573 ft 283 kts 82°
2026-05-07 04:48 25.01349 51.68398 7070 ft 271 kts 83°
2026-05-07 04:48 25.01556 51.70404 6637 ft 266 kts 83°
2026-05-07 04:48 25.01766 51.72476 6193 ft 271 kts 82°
2026-05-07 04:48 25.01697 51.74544 5684 ft 275 kts 104°
2026-05-07 04:49 25.00794 51.76386 5240 ft 283 kts 131°
2026-05-07 04:49 24.99153 51.77640 4778 ft 289 kts 159°
2026-05-07 04:49 24.97222 51.77915 4674 ft 282 kts 186°
2026-05-07 04:49 24.95399 51.77208 4583 ft 272 kts 214°
2026-05-07 04:50 24.94163 51.75749 4443 ft 261 kts 243°
2026-05-07 04:50 24.93715 51.73837 4327 ft 254 kts 274°
2026-05-07 04:50 24.94152 51.72031 4216 ft 246 kts 304°
2026-05-07 04:50 24.95329 51.70738 4092 ft 238 kts 335°
2026-05-07 04:51 24.96888 51.70231 3879 ft 234 kts 358°
2026-05-07 04:51 24.98506 51.70256 3674 ft 232 kts
2026-05-07 04:51 24.99583 51.70326 3608 ft 226 kts
2026-05-07 04:51 25.01622 51.70455 3534 ft 220 kts
2026-05-07 04:52 25.02656 51.70433 3513 ft 223 kts 351°
2026-05-07 04:52 25.04165 51.69917 3523 ft 232 kts 342°
2026-05-07 04:52 25.05680 51.69290 3523 ft 233 kts 341°
2026-05-07 04:52 25.07167 51.68648 3508 ft 231 kts 340°
2026-05-07 04:53 25.08667 51.67987 3333 ft 236 kts 340°
2026-05-07 04:53 25.10193 51.67313 3050 ft 236 kts 340°
2026-05-07 04:53 25.11712 51.66643 2747 ft 236 kts 341°
2026-05-07 04:53 25.13231 51.65973 2454 ft 234 kts 341°
2026-05-07 04:54 25.14718 51.65317 2144 ft 219 kts 341°
2026-05-07 04:54 25.16079 51.64713 1874 ft 203 kts 342°
2026-05-07 04:54 25.17329 51.64161 1681 ft 186 kts 342°
2026-05-07 04:54 25.18476 51.63656 1450 ft 174 kts 342°
2026-05-07 04:55 25.19548 51.63183 1185 ft 157 kts 341°
2026-05-07 04:55 25.20511 51.62759 984 ft 141 kts 340°
2026-05-07 04:55 25.21431 51.62358 831 ft 144 kts 340°
2026-05-07 04:55 25.22354 51.61952 746 ft 143 kts 339°
2026-05-07 04:56 25.23282 51.61545 563 ft 143 kts 340°
2026-05-07 04:56 25.24186 51.61140 326 ft 136 kts 339°
2026-05-07 04:56 25.25077 51.60749 139 ft 140 kts 340°
2026-05-07 04:56 25.25997 51.60353 28 ft 137 kts 339°
2026-05-07 04:57 25.26709 51.60037 24 ft 84 kts 339°
2026-05-07 04:57 25.27119 51.59858 24 ft 45 kts 339°
2026-05-07 04:57 25.27359 51.59838 24 ft 10 kts
2026-05-07 04:57 25.27414 51.59871 29 ft 10 kts 67°
2026-05-07 04:58 25.27391 51.59935 28 ft 10 kts 144°
2026-05-07 04:58 25.27296 51.59980 27 ft 17 kts 158°
2026-05-07 04:58 25.27183 51.60029 31 ft 17 kts 158°
2026-05-07 04:58 25.27070 51.60079 27 ft 17 kts 158°
2026-05-07 04:59 25.26958 51.60129 29 ft 17 kts 158°
2026-05-07 04:59 25.26846 51.60178 27 ft 17 kts 158°
2026-05-07 04:59 25.26734 51.60228 27 ft 17 kts 158°
2026-05-07 04:59 25.26621 51.60277 29 ft 17 kts 158°
2026-05-07 05:00 25.26518 51.60332 30 ft 13 kts 132°
2026-05-07 05:00 25.26506 51.60384 31 ft 6 kts 66°
2026-05-07 05:00 25.26559 51.60418 26 ft 14 kts 359°
2026-05-07 05:00 25.26644 51.60501 27 ft 18 kts 66°
2026-05-07 05:01 25.26685 51.60630 27 ft 18 kts 86°
2026-05-07 05:01 25.26643 51.60760 27 ft 18 kts 112°
2026-05-07 05:01 25.26595 51.60887 27 ft 17 kts 112°
2026-05-07 05:01 25.26567 51.60946 27 ft 7 kts 130°
2026-05-07 05:02 25.26520 51.60971 27 ft 8 kts 157°
2026-05-07 05:02 25.26505 51.61011 27 ft 5 kts 81°
2026-05-07 05:02 25.26516 51.61053 27 ft 6 kts 70°
2026-05-07 05:02 25.26526 51.61082 27 ft 0 kts 68°